Time,TemperatureF,DewpointF,PressureIn,WindDirection,WindDirectionDegrees,WindSpeedMPH,WindSpeedGustMPH,Humidity,HourlyPrecipIn,Conditions,Clouds,dailyrainin,SoftwareType,DateUTC
2013-10-10 00:01:00,56.7,37.2,29.59,East,86,0.0,0.0,48,0.00,,CLR,0.00,VWS V14.01,2013-10-10 07:01:00,
2013-10-10 00:06:00,56.7,37.2,29.59,East,86,0.0,0.0,48,0.00,,CLR,0.00,VWS V14.01,2013-10-10 07:06:00,
2013-10-10 00:11:00,56.7,37.2,29.59,East,86,0.0,0.0,48,0.00,,CLR,0.00,VWS V14.01,2013-10-10 07:11:00,
2013-10-10 00:16:00,56.3,35.2,29.59,East,86,0.0,0.0,45,0.00,,CLR,0.00,VWS V14.01,2013-10-10 07:16:00,
2013-10-10 00:21:00,55.9,34.9,29.59,East,86,0.0,0.0,45,0.00,,CLR,0.00,VWS V14.01,2013-10-10 07:21:00,
2013-10-10 00:26:00,55.2,34.3,29.59,East,86,0.0,0.0,45,0.00,,CLR,0.00,VWS V14.01,2013-10-10 07:26:00,
2013-10-10 00:31:00,55.2,34.3,29.59,East,86,0.0,0.0,45,0.00,,CLR,0.00,VWS V14.01,2013-10-10 07:31:00,
2013-10-10 00:36:00,54.7,34.3,29.59,East,85,0.0,0.0,46,0.00,,CLR,0.00,VWS V14.01,2013-10-10 07:36:00,
2013-10-10 00:41:00,54.5,34.7,29.59,East,86,0.0,0.0,47,0.00,,CLR,0.00,VWS V14.01,2013-10-10 07:41:00,
2013-10-10 00:46:00,54.7,37.4,29.59,East,82,0.0,0.0,52,0.00,,CLR,0.00,VWS V14.01,2013-10-10 07:46:00,
2013-10-10 00:50:00,54.7,36.9,29.59,East,83,0.0,0.0,51,0.00,,CLR,0.00,VWS V14.01,2013-10-10 07:50:00,
2013-10-10 00:55:00,54.5,36.8,29.59,East,83,0.0,0.0,51,0.00,,CLR,0.00,VWS V14.01,2013-10-10 07:55:00,
2013-10-10 01:00:00,54.5,36.8,29.59,East,82,0.0,0.0,51,0.00,,CLR,0.00,VWS V14.01,2013-10-10 08:00:00,
2013-10-10 01:05:00,54.3,36.6,29.59,East,83,0.0,0.0,51,0.00,,CLR,0.00,VWS V14.01,2013-10-10 08:05:00,
2013-10-10 01:10:00,54.3,36.6,29.59,East,83,0.0,0.0,51,0.00,,CLR,0.00,VWS V14.01,2013-10-10 08:10:00,
2013-10-10 01:15:00,54.0,36.3,29.59,East,83,0.0,0.0,51,0.00,,CLR,0.00,VWS V14.01,2013-10-10 08:15:00,
2013-10-10 01:20:00,54.0,36.3,29.59,East,83,0.0,0.0,51,0.00,,CLR,0.00,VWS V14.01,2013-10-10 08:20:00,
2013-10-10 01:25:00,53.6,35.9,29.59,East,82,0.0,0.0,51,0.00,,CLR,0.00,VWS V14.01,2013-10-10 08:25:00,
2013-10-10 01:30:00,53.6,35.9,29.59,East,83,0.0,0.0,51,0.00,,CLR,0.00,VWS V14.01,2013-10-10 08:30:00,
2013-10-10 01:35:00,53.6,36.4,29.59,East,83,0.0,0.0,52,0.00,,CLR,0.00,VWS V14.01,2013-10-10 08:35:00,
2013-10-10 01:40:00,53.6,36.4,29.59,East,83,0.0,0.0,52,0.00,,CLR,0.00,VWS V14.01,2013-10-10 08:40:00,
2013-10-10 01:45:00,53.6,36.4,29.62,East,83,0.0,0.0,52,0.00,,CLR,0.00,VWS V14.01,2013-10-10 08:45:00,
2013-10-10 01:50:00,53.6,35.9,29.62,East,83,0.0,0.0,51,0.00,,CLR,0.00,VWS V14.01,2013-10-10 08:50:00,
2013-10-10 01:55:00,53.8,36.6,29.62,East,83,0.0,0.0,52,0.00,,CLR,0.00,VWS V14.01,2013-10-10 08:55:00,
2013-10-10 02:00:00,53.8,36.6,29.62,East,83,0.0,0.0,52,0.00,,CLR,0.00,VWS V14.01,2013-10-10 09:00:00,
2013-10-10 02:05:00,54.5,36.8,29.62,East,83,0.0,0.0,51,0.00,,CLR,0.00,VWS V14.01,2013-10-10 09:05:00,
2013-10-10 02:10:00,54.5,36.8,29.62,East,83,0.0,0.0,51,0.00,,CLR,0.00,VWS V14.01,2013-10-10 09:10:00,
2013-10-10 02:15:00,54.5,36.8,29.62,East,83,0.0,0.0,51,0.00,,CLR,0.00,VWS V14.01,2013-10-10 09:15:00,
2013-10-10 02:20:00,54.3,36.6,29.62,East,83,0.0,0.0,51,0.00,,CLR,0.00,VWS V14.01,2013-10-10 09:20:00,
2013-10-10 02:25:00,54.1,36.4,29.62,East,83,0.0,0.0,51,0.00,,CLR,0.00,VWS V14.01,2013-10-10 09:25:00,
2013-10-10 02:30:00,53.8,36.1,29.62,East,83,0.0,0.0,51,0.00,,CLR,0.00,VWS V14.01,2013-10-10 09:30:00,
2013-10-10 02:35:00,53.2,35.6,29.62,East,83,0.0,0.0,51,0.00,,CLR,0.00,VWS V14.01,2013-10-10 09:35:00,
2013-10-10 02:40:00,53.1,35.4,29.62,East,83,0.0,0.0,51,0.00,,CLR,0.00,VWS V14.01,2013-10-10 09:40:00,
2013-10-10 02:45:00,53.1,35.4,29.62,East,83,0.0,0.0,51,0.00,,CLR,0.00,VWS V14.01,2013-10-10 09:45:00,
2013-10-10 02:50:00,53.1,35.9,29.62,East,83,0.0,0.0,52,0.00,,CLR,0.00,VWS V14.01,2013-10-10 09:50:00,
2013-10-10 02:55:00,53.1,36.4,29.62,East,83,0.0,0.0,53,0.00,,CLR,0.00,VWS V14.01,2013-10-10 09:55:00,
2013-10-10 03:00:00,53.1,36.4,29.62,East,83,0.0,0.0,53,0.00,,CLR,0.00,VWS V14.01,2013-10-10 10:00:00,
2013-10-10 03:05:00,53.1,36.4,29.62,East,83,0.0,0.0,53,0.00,,CLR,0.00,VWS V14.01,2013-10-10 10:05:00,
2013-10-10 03:10:00,53.1,36.4,29.62,East,83,0.0,0.0,53,0.00,,CLR,0.00,VWS V14.01,2013-10-10 10:10:00,
2013-10-10 03:15:00,52.7,36.5,29.62,East,83,0.0,0.0,54,0.00,,CLR,0.00,VWS V14.01,2013-10-10 10:15:00,
2013-10-10 03:20:00,52.5,36.4,29.62,East,83,0.0,0.0,54,0.00,,CLR,0.00,VWS V14.01,2013-10-10 10:20:00,
2013-10-10 03:25:00,52.3,36.2,29.62,East,83,0.0,0.0,54,0.00,,CLR,0.00,VWS V14.01,2013-10-10 10:25:00,
2013-10-10 03:30:00,52.3,36.2,29.62,East,83,0.0,0.0,54,0.00,,CLR,0.00,VWS V14.01,2013-10-10 10:30:00,
2013-10-10 03:35:00,52.5,37.3,29.62,East,83,0.0,0.0,56,0.00,,CLR,0.00,VWS V14.01,2013-10-10 10:35:00,
2013-10-10 03:40:00,52.9,42.2,29.62,ESE,114,0.0,0.0,67,0.00,,CLR,0.00,VWS V14.01,2013-10-10 10:40:00,
2013-10-10 03:45:00,52.9,42.2,29.62,ENE,73,0.0,0.0,67,0.00,,CLR,0.00,VWS V14.01,2013-10-10 10:45:00,
2013-10-10 03:50:00,53.1,44.7,29.62,NE,38,0.0,0.0,73,0.00,,CLR,0.00,VWS V14.01,2013-10-10 10:50:00,
2013-10-10 03:55:00,53.1,44.7,29.65,East,92,0.0,0.0,73,0.00,,CLR,0.00,VWS V14.01,2013-10-10 10:55:00,
2013-10-10 04:00:00,52.9,45.2,29.65,East,88,0.0,0.0,75,0.00,,CLR,0.00,VWS V14.01,2013-10-10 11:00:00,
2013-10-10 04:05:00,52.9,45.2,29.65,East,82,0.0,0.0,75,0.00,,CLR,0.00,VWS V14.01,2013-10-10 11:05:00,
2013-10-10 04:10:00,52.7,45.0,29.65,East,82,0.0,0.0,75,0.00,,CLR,0.00,VWS V14.01,2013-10-10 11:10:00,
2013-10-10 04:15:00,52.7,45.0,29.65,East,82,0.0,0.0,75,0.00,,CLR,0.00,VWS V14.01,2013-10-10 11:15:00,
2013-10-10 04:20:00,52.5,44.5,29.65,East,82,0.0,0.0,74,0.00,,CLR,0.00,VWS V14.01,2013-10-10 11:20:00,
2013-10-10 04:25:00,52.3,44.3,29.65,East,82,0.0,0.0,74,0.00,,CLR,0.00,VWS V14.01,2013-10-10 11:25:00,
2013-10-10 04:30:00,52.2,43.8,29.65,East,82,0.0,0.0,73,0.00,,CLR,0.00,VWS V14.01,2013-10-10 11:30:00,
2013-10-10 04:35:00,52.2,43.8,29.65,East,82,0.0,0.0,73,0.00,,CLR,0.00,VWS V14.01,2013-10-10 11:35:00,
2013-10-10 04:40:00,52.2,43.8,29.65,East,82,0.0,0.0,73,0.00,,CLR,0.00,VWS V14.01,2013-10-10 11:40:00,
2013-10-10 04:45:00,52.2,43.8,29.65,East,82,0.0,0.0,73,0.00,,CLR,0.00,VWS V14.01,2013-10-10 11:45:00,
2013-10-10 04:50:00,52.2,43.8,29.65,East,82,0.0,0.0,73,0.00,,CLR,0.00,VWS V14.01,2013-10-10 11:50:00,
2013-10-10 04:55:00,52.2,44.1,29.65,East,82,0.0,0.0,74,0.00,,CLR,0.00,VWS V14.01,2013-10-10 11:55:00,
2013-10-10 05:00:00,52.3,44.3,29.65,East,82,0.0,0.0,74,0.00,,CLR,0.00,VWS V14.01,2013-10-10 12:00:00,
2013-10-10 05:05:00,52.5,44.5,29.65,East,82,0.0,0.0,74,0.00,,CLR,0.00,VWS V14.01,2013-10-10 12:05:00,
2013-10-10 05:10:00,52.7,44.7,29.65,East,82,0.0,0.0,74,0.00,,CLR,0.00,VWS V14.01,2013-10-10 12:10:00,
2013-10-10 05:15:00,52.9,44.8,29.65,East,82,0.0,0.0,74,0.00,,CLR,0.00,VWS V14.01,2013-10-10 12:15:00,
2013-10-10 05:20:00,52.9,44.8,29.65,East,82,0.0,0.0,74,0.00,,CLR,0.00,VWS V14.01,2013-10-10 12:20:00,
2013-10-10 05:25:00,52.9,44.8,29.65,East,82,0.0,0.0,74,0.00,,CLR,0.00,VWS V14.01,2013-10-10 12:25:00,
2013-10-10 05:30:00,53.1,44.7,29.65,East,82,0.0,0.0,73,0.00,,CLR,0.00,VWS V14.01,2013-10-10 12:30:00,
2013-10-10 05:35:00,52.9,44.5,29.65,East,82,0.0,0.0,73,0.00,,CLR,0.00,VWS V14.01,2013-10-10 12:35:00,
2013-10-10 05:40:00,52.9,44.5,29.65,East,82,0.0,0.0,73,0.00,,CLR,0.00,VWS V14.01,2013-10-10 12:40:00,
2013-10-10 05:45:00,52.7,44.3,29.65,East,82,0.0,0.0,73,0.00,,CLR,0.00,VWS V14.01,2013-10-10 12:45:00,
2013-10-10 05:50:00,52.7,44.3,29.65,East,82,0.0,0.0,73,0.00,,CLR,0.00,VWS V14.01,2013-10-10 12:50:00,
2013-10-10 05:55:00,52.7,44.3,29.68,East,82,0.0,0.0,73,0.00,,CLR,0.00,VWS V14.01,2013-10-10 12:55:00,
2013-10-10 06:00:00,52.7,44.3,29.68,East,82,0.0,0.0,73,0.00,,BKN150,0.00,VWS V14.01,2013-10-10 13:00:00,
2013-10-10 06:05:00,52.7,43.9,29.68,East,82,0.0,0.0,72,0.00,,BKN150,0.00,VWS V14.01,2013-10-10 13:05:00,
2013-10-10 06:10:00,52.7,43.9,29.65,East,82,0.0,0.0,72,0.00,,BKN150,0.00,VWS V14.01,2013-10-10 13:10:00,
2013-10-10 06:15:00,52.5,43.8,29.65,East,82,0.0,0.0,72,0.00,,BKN150,0.00,VWS V14.01,2013-10-10 13:15:00,
2013-10-10 06:20:00,52.5,43.8,29.65,East,82,0.0,0.0,72,0.00,,BKN150,0.00,VWS V14.01,2013-10-10 13:20:00,
2013-10-10 06:25:00,52.5,43.8,29.68,East,82,0.0,0.0,72,0.00,,BKN150,0.00,VWS V14.01,2013-10-10 13:25:00,
2013-10-10 06:30:00,52.3,43.6,29.68,East,82,0.0,0.0,72,0.00,,BKN150,0.00,VWS V14.01,2013-10-10 13:30:00,
2013-10-10 06:35:00,52.3,43.6,29.68,East,82,0.0,0.0,72,0.00,,BKN150,0.00,VWS V14.01,2013-10-10 13:35:00,
2013-10-10 06:40:00,52.2,43.4,29.68,East,82,0.0,0.0,72,0.00,,BKN150,0.00,VWS V14.01,2013-10-10 13:40:00,
2013-10-10 06:45:00,52.2,43.1,29.68,East,82,0.0,0.0,71,0.00,,BKN150,0.00,VWS V14.01,2013-10-10 13:45:00,
2013-10-10 06:50:00,52.2,43.1,29.68,East,82,0.0,0.0,71,0.00,,BKN150,0.00,VWS V14.01,2013-10-10 13:50:00,
2013-10-10 06:55:00,51.8,42.7,29.68,East,82,0.0,0.0,71,0.00,,BKN150,0.00,VWS V14.01,2013-10-10 13:55:00,
2013-10-10 07:00:00,51.8,42.7,29.68,East,82,0.0,0.0,71,0.00,,BKN160,0.00,VWS V14.01,2013-10-10 14:00:00,
2013-10-10 07:05:00,51.6,42.5,29.68,East,82,0.0,0.0,71,0.00,,BKN160,0.00,VWS V14.01,2013-10-10 14:05:00,
2013-10-10 07:10:00,51.6,42.5,29.68,East,82,0.0,0.0,71,0.00,,BKN160,0.00,VWS V14.01,2013-10-10 14:10:00,
2013-10-10 07:15:00,51.6,42.9,29.68,East,82,0.0,0.0,72,0.00,,BKN160,0.00,VWS V14.01,2013-10-10 14:15:00,
2013-10-10 07:20:00,51.6,42.9,29.68,East,82,0.0,0.0,72,0.00,,BKN160,0.00,VWS V14.01,2013-10-10 14:20:00,
2013-10-10 07:25:00,51.8,42.7,29.68,East,82,0.0,0.0,71,0.00,,BKN160,0.00,VWS V14.01,2013-10-10 14:25:00,
2013-10-10 07:30:00,52.0,43.2,29.68,East,82,0.0,0.0,72,0.00,,BKN160,0.00,VWS V14.01,2013-10-10 14:30:00,
2013-10-10 07:35:00,52.2,43.4,29.68,East,82,0.0,0.0,72,0.00,,BKN160,0.00,VWS V14.01,2013-10-10 14:35:00,
2013-10-10 07:40:00,52.3,43.6,29.71,East,82,0.0,0.0,72,0.00,,BKN160,0.00,VWS V14.01,2013-10-10 14:40:00,
2013-10-10 07:45:00,52.5,43.8,29.71,East,82,0.0,0.0,72,0.00,,BKN160,0.00,VWS V14.01,2013-10-10 14:45:00,
2013-10-10 07:50:00,52.7,44.3,29.71,East,82,0.0,0.0,73,0.00,,BKN160,0.00,VWS V14.01,2013-10-10 14:50:00,
2013-10-10 07:55:00,52.9,44.5,29.71,East,82,0.0,0.0,73,0.00,,BKN160,0.00,VWS V14.01,2013-10-10 14:55:00,
2013-10-10 08:00:00,53.1,44.7,29.71,East,82,0.0,0.0,73,0.00,,BKN160,0.00,VWS V14.01,2013-10-10 15:00:00,
2013-10-10 08:05:00,53.1,44.7,29.71,East,82,0.0,0.0,73,0.00,,BKN160,0.00,VWS V14.01,2013-10-10 15:05:00,
2013-10-10 08:10:00,53.1,44.7,29.71,East,82,0.0,0.0,73,0.00,,BKN160,0.00,VWS V14.01,2013-10-10 15:10:00,
2013-10-10 08:15:00,53.1,44.7,29.71,SE,136,0.0,0.0,73,0.00,,BKN160,0.00,VWS V14.01,2013-10-10 15:15:00,
2013-10-10 08:20:00,53.2,44.8,29.71,SSW,196,0.0,0.0,73,0.00,,BKN160,0.00,VWS V14.01,2013-10-10 15:20:00,
2013-10-10 08:25:00,53.2,44.8,29.71,SW,233,0.0,0.0,73,0.00,,BKN160,0.00,VWS V14.01,2013-10-10 15:25:00,
2013-10-10 08:30:00,53.4,44.6,29.71,SW,223,0.0,0.0,72,0.00,,BKN160,0.00,VWS V14.01,2013-10-10 15:30:00,
2013-10-10 08:35:00,53.8,44.6,29.71,WSW,248,0.0,0.0,71,0.00,,BKN160,0.00,VWS V14.01,2013-10-10 15:35:00,
2013-10-10 08:40:00,54.0,44.8,29.71,WSW,248,0.0,0.0,71,0.00,,BKN160,0.00,VWS V14.01,2013-10-10 15:40:00,
2013-10-10 08:45:00,54.0,44.8,29.71,ESE,112,0.0,0.0,71,0.00,,BKN160,0.00,VWS V14.01,2013-10-10 15:45:00,
2013-10-10 08:50:00,54.3,44.4,29.74,East,101,3.1,3.6,69,0.00,,BKN160,0.00,VWS V14.01,2013-10-10 15:50:00,
2013-10-10 08:55:00,54.3,44.4,29.74,SSE,149,0.0,0.0,69,0.00,,BKN160,0.00,VWS V14.01,2013-10-10 15:55:00,
2013-10-10 09:00:00,54.3,44.4,29.74,East,90,0.0,0.0,69,0.00,,FEW180,0.00,VWS V14.01,2013-10-10 16:00:00,
2013-10-10 09:05:00,54.3,44.8,29.74,East,98,0.0,0.0,70,0.00,,FEW180,0.00,VWS V14.01,2013-10-10 16:05:00,
2013-10-10 09:10:00,54.3,44.4,29.74,East,92,2.7,2.7,69,0.00,,FEW180,0.00,VWS V14.01,2013-10-10 16:10:00,
2013-10-10 09:15:00,54.3,44.4,29.74,SE,128,6.3,6.3,69,0.00,,FEW180,0.00,VWS V14.01,2013-10-10 16:15:00,
2013-10-10 09:20:00,54.3,44.4,29.74,East,86,5.4,5.4,69,0.00,,FEW180,0.00,VWS V14.01,2013-10-10 16:20:00,
2013-10-10 09:25:00,54.3,44.4,29.74,East,88,3.1,3.1,69,0.00,,FEW180,0.00,VWS V14.01,2013-10-10 16:25:00,
2013-10-10 09:30:00,54.5,44.5,29.74,NE,38,0.0,0.0,69,0.00,,FEW180,0.00,VWS V14.01,2013-10-10 16:30:00,
2013-10-10 09:35:00,54.5,44.5,29.74,ENE,70,0.0,0.0,69,0.00,,FEW180,0.00,VWS V14.01,2013-10-10 16:35:00,
2013-10-10 09:40:00,54.9,44.1,29.74,East,93,0.0,2.2,67,0.00,,FEW180,0.00,VWS V14.01,2013-10-10 16:40:00,
2013-10-10 09:45:00,54.9,43.7,29.77,East,92,0.0,0.0,66,0.00,,FEW180,0.00,VWS V14.01,2013-10-10 16:45:00,
2013-10-10 09:50:00,55.4,43.8,29.77,ENE,70,3.1,3.1,65,0.00,,FEW180,0.00,VWS V14.01,2013-10-10 16:50:00,
2013-10-10 09:55:00,55.4,43.8,29.77,ENE,75,2.7,2.7,65,0.00,,FEW180,0.00,VWS V14.01,2013-10-10 16:55:00,
2013-10-10 10:00:00,55.6,42.8,29.77,ENE,67,2.2,2.2,62,0.00,,FEW180,0.00,VWS V14.01,2013-10-10 17:00:00,
2013-10-10 10:05:00,55.9,43.1,29.77,ESE,109,2.7,2.7,62,0.00,,FEW180,0.00,VWS V14.01,2013-10-10 17:05:00,
2013-10-10 10:10:00,56.1,43.3,29.77,SSW,211,0.0,0.0,62,0.00,,FEW180,0.00,VWS V14.01,2013-10-10 17:10:00,
2013-10-10 10:15:00,56.1,43.3,29.77,WSW,247,3.6,3.6,62,0.00,,FEW180,0.00,VWS V14.01,2013-10-10 17:15:00,
2013-10-10 10:20:00,58.3,42.2,29.77,SSE,167,0.0,0.0,55,0.00,,FEW180,0.00,VWS V14.01,2013-10-10 17:20:00,
2013-10-10 10:25:00,61.5,43.8,29.77,SSE,157,0.0,0.0,52,0.00,,FEW180,0.00,VWS V14.01,2013-10-10 17:25:00,
2013-10-10 10:30:00,62.8,42.8,29.77,South,173,0.0,0.0,48,0.00,,FEW180,0.00,VWS V14.01,2013-10-10 17:30:00,
2013-10-10 10:35:00,67.1,41.3,29.77,South,191,0.0,0.0,39,0.00,,FEW180,0.00,VWS V14.01,2013-10-10 17:35:00,
2013-10-10 10:40:00,69.3,40.5,29.77,ESE,123,0.0,0.0,35,0.00,,FEW180,0.00,VWS V14.01,2013-10-10 17:40:00,
2013-10-10 10:45:00,69.3,40.5,29.77,SW,235,4.0,4.0,35,0.00,,FEW180,0.00,VWS V14.01,2013-10-10 17:45:00,
2013-10-10 10:50:00,70.7,40.2,29.77,SW,219,2.7,2.7,33,0.00,,FEW180,0.00,VWS V14.01,2013-10-10 17:50:00,
2013-10-10 10:55:00,71.4,40.0,29.77,SW,229,0.0,0.0,32,0.00,,FEW180,0.00,VWS V14.01,2013-10-10 17:55:00,
2013-10-10 11:00:00,71.6,40.2,29.77,WSW,245,2.7,2.7,32,0.00,,FEW180,0.00,VWS V14.01,2013-10-10 18:00:00,
2013-10-10 11:05:00,72.0,39.7,29.77,SW,231,3.1,3.1,31,0.00,,CLR,0.00,VWS V14.01,2013-10-10 18:05:00,
2013-10-10 11:10:00,72.5,40.2,29.77,SW,227,3.1,4.0,31,0.00,,CLR,0.00,VWS V14.01,2013-10-10 18:10:00,
2013-10-10 11:15:00,72.9,39.7,29.77,WSW,239,0.0,0.0,30,0.00,,CLR,0.00,VWS V14.01,2013-10-10 18:15:00,
2013-10-10 11:20:00,73.0,39.8,29.77,SW,214,0.0,0.0,30,0.00,,CLR,0.00,VWS V14.01,2013-10-10 18:20:00,
2013-10-10 11:25:00,74.7,39.4,29.77,SSW,200,0.0,2.7,28,0.00,,CLR,0.00,VWS V14.01,2013-10-10 18:25:00,
2013-10-10 11:30:00,75.0,39.7,29.77,WSW,245,3.6,3.6,28,0.00,,CLR,0.00,VWS V14.01,2013-10-10 18:30:00,
2013-10-10 11:35:00,75.9,38.6,29.77,SW,221,4.0,4.0,26,0.00,,CLR,0.00,VWS V14.01,2013-10-10 18:35:00,
2013-10-10 11:40:00,75.6,38.3,29.77,SSW,208,4.0,4.0,26,0.00,,CLR,0.00,VWS V14.01,2013-10-10 18:40:00,
2013-10-10 11:45:00,75.6,38.3,29.77,SW,236,0.0,0.0,26,0.00,,CLR,0.00,VWS V14.01,2013-10-10 18:45:00,
2013-10-10 11:50:00,75.9,38.6,29.77,WSW,238,0.0,0.0,26,0.00,,CLR,0.00,VWS V14.01,2013-10-10 18:50:00,
2013-10-10 11:55:00,76.3,38.9,29.77,SW,220,3.1,3.1,26,0.00,,CLR,0.00,VWS V14.01,2013-10-10 18:55:00,
2013-10-10 12:00:00,77.4,37.8,29.77,SSW,210,4.0,4.0,24,0.00,,CLR,0.00,VWS V14.01,2013-10-10 19:00:00,
2013-10-10 12:05:00,77.4,37.8,29.77,WSW,239,0.0,0.0,24,0.00,,CLR,0.00,VWS V14.01,2013-10-10 19:05:00,
2013-10-10 12:10:00,76.8,37.3,29.77,WSW,239,4.0,4.0,24,0.00,,CLR,0.00,VWS V14.01,2013-10-10 19:10:00,
2013-10-10 12:15:00,76.8,37.3,29.77,SW,226,5.8,5.8,24,0.00,,CLR,0.00,VWS V14.01,2013-10-10 19:15:00,
2013-10-10 12:20:00,75.9,37.6,29.77,WSW,243,0.0,0.0,25,0.00,,CLR,0.00,VWS V14.01,2013-10-10 19:20:00,
2013-10-10 12:25:00,75.2,37.0,29.77,SW,220,4.0,4.0,25,0.00,,CLR,0.00,VWS V14.01,2013-10-10 19:25:00,
2013-10-10 12:30:00,75.7,37.5,29.77,SW,222,3.1,3.1,25,0.00,,CLR,0.00,VWS V14.01,2013-10-10 19:30:00,
2013-10-10 12:35:00,76.6,38.2,29.77,West,259,2.7,2.7,25,0.00,,CLR,0.00,VWS V14.01,2013-10-10 19:35:00,
2013-10-10 12:40:00,77.5,37.9,29.77,SW,219,0.0,0.0,24,0.00,,CLR,0.00,VWS V14.01,2013-10-10 19:40:00,
2013-10-10 12:45:00,77.4,37.8,29.77,SW,219,3.1,3.1,24,0.00,,CLR,0.00,VWS V14.01,2013-10-10 19:45:00,
2013-10-10 12:50:00,77.7,38.1,29.77,NE,41,4.0,4.0,24,0.00,,CLR,0.00,VWS V14.01,2013-10-10 19:50:00,
2013-10-10 12:55:00,77.7,38.1,29.77,ESE,105,0.0,0.0,24,0.00,,CLR,0.00,VWS V14.01,2013-10-10 19:55:00,
2013-10-10 13:00:00,78.1,37.3,29.77,SSW,197,3.6,3.6,23,0.00,,FEW010,0.00,VWS V14.01,2013-10-10 20:00:00,
2013-10-10 13:05:00,77.4,36.7,29.77,SE,135,0.0,0.0,23,0.00,,FEW010,0.00,VWS V14.01,2013-10-10 20:05:00,
2013-10-10 13:10:00,77.4,37.8,29.77,East,81,0.0,0.0,24,0.00,,FEW010,0.00,VWS V14.01,2013-10-10 20:10:00,
2013-10-10 13:15:00,77.4,37.8,29.77,ENE,58,0.0,0.0,24,0.00,,FEW010,0.00,VWS V14.01,2013-10-10 20:15:00,
2013-10-10 13:20:00,77.4,37.8,29.77,West,272,0.0,0.0,24,0.00,,FEW010,0.00,VWS V14.01,2013-10-10 20:20:00,
2013-10-10 13:25:00,76.6,37.2,29.77,SW,215,3.1,3.1,24,0.00,,FEW010,0.00,VWS V14.01,2013-10-10 20:25:00,
2013-10-10 13:30:00,76.6,37.2,29.77,ESE,103,0.0,0.0,24,0.00,,FEW010,0.00,VWS V14.01,2013-10-10 20:30:00,
2013-10-10 13:31:00,76.8,37.3,29.77,ESE,103,0.0,0.0,24,0.00,,FEW010,0.00,VWS V14.01,2013-10-10 20:31:00,
2013-10-10 13:36:00,76.8,37.3,29.77,West,271,3.1,3.1,24,0.00,,FEW010,0.00,VWS V14.01,2013-10-10 20:36:00,
2013-10-10 13:41:00,76.8,36.2,29.77,South,179,4.0,4.0,23,0.00,,FEW010,0.00,VWS V14.01,2013-10-10 20:41:00,
2013-10-10 13:46:00,76.8,36.2,29.77,SW,217,4.0,4.0,23,0.00,,FEW010,0.00,VWS V14.01,2013-10-10 20:46:00,
2013-10-10 13:51:00,75.9,36.6,29.77,SSE,161,0.0,0.0,24,0.00,,FEW010,0.00,VWS V14.01,2013-10-10 20:51:00,
2013-10-10 13:56:00,77.4,36.7,29.77,SW,226,4.0,4.0,23,0.00,,FEW010,0.00,VWS V14.01,2013-10-10 20:56:00,
2013-10-10 14:01:00,77.4,36.7,29.77,West,264,2.7,2.7,23,0.00,,FEW010,0.00,VWS V14.01,2013-10-10 21:01:00,
2013-10-10 14:06:00,77.4,36.7,29.77,South,186,3.1,3.1,23,0.00,,FEW010,0.00,VWS V14.01,2013-10-10 21:06:00,
2013-10-10 14:11:00,76.8,36.2,29.77,South,185,0.0,0.0,23,0.00,,FEW010,0.00,VWS V14.01,2013-10-10 21:11:00,
2013-10-10 14:16:00,77.0,36.4,29.77,SW,216,2.7,2.7,23,0.00,,FEW010,0.00,VWS V14.01,2013-10-10 21:16:00,
2013-10-10 14:21:00,77.0,36.4,29.77,WSW,249,2.7,2.7,23,0.00,,FEW010,0.00,VWS V14.01,2013-10-10 21:21:00,
2013-10-10 14:26:00,77.0,36.4,29.77,WSW,249,2.7,2.7,23,0.00,,FEW010,0.00,VWS V14.01,2013-10-10 21:26:00,
2013-10-10 14:31:00,77.0,36.4,29.77,West,264,2.7,2.7,23,0.00,,FEW010,0.00,VWS V14.01,2013-10-10 21:31:00,
2013-10-10 14:36:00,76.5,36.0,29.77,WSW,241,2.7,2.7,23,0.00,,FEW010,0.00,VWS V14.01,2013-10-10 21:36:00,
2013-10-10 14:41:00,76.5,36.0,29.77,WSW,241,2.7,2.7,23,0.00,,FEW010,0.00,VWS V14.01,2013-10-10 21:41:00,
2013-10-10 14:46:00,77.2,36.5,29.77,West,280,2.2,2.2,23,0.00,,FEW010,0.00,VWS V14.01,2013-10-10 21:46:00,
2013-10-10 14:51:00,77.2,36.5,29.77,West,259,3.1,3.1,23,0.00,,FEW010,0.00,VWS V14.01,2013-10-10 21:51:00,
2013-10-10 14:56:00,78.1,36.2,29.77,SSW,199,2.7,3.6,22,0.00,,FEW010,0.00,VWS V14.01,2013-10-10 21:56:00,
2013-10-10 15:01:00,77.7,35.9,29.77,SSW,211,3.1,3.1,22,0.00,,SCT180,0.00,VWS V14.01,2013-10-10 22:01:00,
2013-10-10 15:06:00,77.5,35.7,29.77,SSE,158,4.9,4.9,22,0.00,,SCT180,0.00,VWS V14.01,2013-10-10 22:06:00,
2013-10-10 15:11:00,77.9,36.0,29.77,SW,233,0.0,0.0,22,0.00,,SCT180,0.00,VWS V14.01,2013-10-10 22:11:00,
2013-10-10 15:16:00,77.9,36.0,29.77,SSW,212,0.0,0.0,22,0.00,,SCT180,0.00,VWS V14.01,2013-10-10 22:16:00,
2013-10-10 15:21:00,77.9,36.0,29.77,WSW,250,0.0,2.7,22,0.00,,SCT180,0.00,VWS V14.01,2013-10-10 22:21:00,
2013-10-10 15:26:00,79.2,35.9,29.77,SW,218,2.2,2.2,21,0.00,,SCT180,0.00,VWS V14.01,2013-10-10 22:26:00,
2013-10-10 15:31:00,78.3,36.3,29.77,ENE,65,0.0,2.2,22,0.00,,SCT180,0.00,VWS V14.01,2013-10-10 22:31:00,
2013-10-10 15:36:00,76.1,34.5,29.77,SW,221,0.0,0.0,22,0.00,,SCT180,0.00,VWS V14.01,2013-10-10 22:36:00,
2013-10-10 15:41:00,74.8,34.6,29.77,SW,223,2.7,2.7,23,0.00,,SCT180,0.00,VWS V14.01,2013-10-10 22:41:00,
2013-10-10 15:46:00,74.8,34.6,29.77,SW,224,0.0,0.0,23,0.00,,SCT180,0.00,VWS V14.01,2013-10-10 22:46:00,
2013-10-10 15:51:00,70.0,33.5,29.77,SSW,210,4.0,4.0,26,0.00,,SCT180,0.00,VWS V14.01,2013-10-10 22:51:00,
2013-10-10 15:56:00,69.6,33.2,29.77,SW,230,3.1,3.1,26,0.00,,SCT180,0.00,VWS V14.01,2013-10-10 22:56:00,
2013-10-10 16:01:00,69.1,34.6,29.77,SSE,168,3.6,3.6,28,0.00,,FEW180,0.00,VWS V14.01,2013-10-10 23:01:00,
2013-10-10 16:06:00,69.1,34.6,29.77,WSW,245,2.2,2.2,28,0.00,,FEW180,0.00,VWS V14.01,2013-10-10 23:06:00,
2013-10-10 16:11:00,70.9,36.2,29.77,SW,230,2.7,2.7,28,0.00,,FEW180,0.00,VWS V14.01,2013-10-10 23:11:00,
2013-10-10 16:15:00,70.9,36.2,29.77,WSW,251,4.0,4.0,28,0.00,,FEW180,0.00,VWS V14.01,2013-10-10 23:15:00,
2013-10-10 16:20:00,73.6,36.6,29.77,SW,214,0.0,0.0,26,0.00,,FEW180,0.00,VWS V14.01,2013-10-10 23:20:00,
2013-10-10 16:25:00,76.8,38.4,29.77,SW,214,0.0,0.0,25,0.00,,FEW180,0.00,VWS V14.01,2013-10-10 23:25:00,
2013-10-10 16:30:00,77.7,37.0,29.77,WSW,251,4.0,4.0,23,0.00,,FEW180,0.00,VWS V14.01,2013-10-10 23:30:00,
2013-10-10 16:35:00,78.4,37.6,29.77,SW,225,0.0,0.0,23,0.00,,FEW180,0.00,VWS V14.01,2013-10-10 23:35:00,
2013-10-10 16:40:00,78.3,36.3,29.77,SSE,167,0.0,0.0,22,0.00,,FEW180,0.00,VWS V14.01,2013-10-10 23:40:00,
2013-10-10 16:45:00,78.8,36.8,29.77,WSW,246,0.0,0.0,22,0.00,,FEW180,0.00,VWS V14.01,2013-10-10 23:45:00,
2013-10-10 16:50:00,78.1,36.2,29.77,WSW,244,0.0,0.0,22,0.00,,FEW180,0.00,VWS V14.01,2013-10-10 23:50:00,
2013-10-10 16:55:00,77.9,36.0,29.77,South,173,0.0,0.0,22,0.00,,FEW180,0.00,VWS V14.01,2013-10-10 23:55:00,
2013-10-10 17:00:00,77.9,36.0,29.77,SW,220,0.0,0.0,22,0.00,,FEW180,0.00,VWS V14.01,2013-10-11 00:00:00,
2013-10-10 17:05:00,77.0,35.3,29.77,WSW,252,3.1,3.1,22,0.00,,FEW180,0.00,VWS V14.01,2013-10-11 00:05:00,
2013-10-10 17:10:00,74.5,35.4,29.77,SSW,210,3.6,3.6,24,0.00,,FEW180,0.00,VWS V14.01,2013-10-11 00:10:00,
2013-10-10 17:15:00,72.9,35.0,29.77,SSW,195,3.6,3.6,25,0.00,,FEW180,0.00,VWS V14.01,2013-10-11 00:15:00,
2013-10-10 17:20:00,72.1,35.4,29.77,SW,234,0.0,0.0,26,0.00,,FEW180,0.00,VWS V14.01,2013-10-11 00:20:00,
2013-10-10 17:25:00,71.8,35.1,29.77,SW,232,4.0,4.0,26,0.00,,FEW180,0.00,VWS V14.01,2013-10-11 00:25:00,
2013-10-10 17:30:00,71.8,35.1,29.77,SW,224,2.7,4.0,26,0.00,,FEW180,0.00,VWS V14.01,2013-10-11 00:30:00,
2013-10-10 17:35:00,71.1,35.4,29.77,SW,216,3.6,3.6,27,0.00,,FEW180,0.00,VWS V14.01,2013-10-11 00:35:00,
2013-10-10 17:40:00,69.8,36.1,29.77,SW,226,0.0,0.0,29,0.00,,FEW180,0.00,VWS V14.01,2013-10-11 00:40:00,
2013-10-10 17:45:00,69.3,36.5,29.77,SW,218,0.0,0.0,30,0.00,,FEW180,0.00,VWS V14.01,2013-10-11 00:45:00,
2013-10-10 17:50:00,68.2,37.2,29.77,SW,236,0.0,0.0,32,0.00,,FEW180,0.00,VWS V14.01,2013-10-11 00:50:00,
2013-10-10 17:55:00,68.2,37.2,29.77,SSE,158,0.0,0.0,32,0.00,,FEW180,0.00,VWS V14.01,2013-10-11 00:55:00,
2013-10-10 18:00:00,65.8,36.7,29.77,SW,231,0.0,0.0,34,0.00,,SCT180,0.00,VWS V14.01,2013-10-11 01:00:00,
2013-10-10 18:05:00,65.8,36.7,29.77,SW,231,0.0,0.0,34,0.00,,SCT180,0.00,VWS V14.01,2013-10-11 01:05:00,
2013-10-10 18:10:00,63.1,36.5,29.77,SW,231,0.0,0.0,37,0.00,,SCT180,0.00,VWS V14.01,2013-10-11 01:10:00,
2013-10-10 18:15:00,62.2,37.0,29.77,ESE,110,3.1,3.1,39,0.00,,SCT180,0.00,VWS V14.01,2013-10-11 01:15:00,
2013-10-10 18:20:00,61.3,37.5,29.77,SW,236,0.0,0.0,41,0.00,,SCT180,0.00,VWS V14.01,2013-10-11 01:20:00,
2013-10-10 18:25:00,60.1,37.5,29.77,WSW,247,2.7,2.7,43,0.00,,SCT180,0.00,VWS V14.01,2013-10-11 01:25:00,
2013-10-10 18:30:00,59.0,37.1,29.77,WSW,240,0.0,0.0,44,0.00,,SCT180,0.00,VWS V14.01,2013-10-11 01:30:00,
2013-10-10 18:35:00,57.4,37.3,29.77,SW,227,0.0,0.0,47,0.00,,SCT180,0.00,VWS V14.01,2013-10-11 01:35:00,
2013-10-10 18:40:00,56.5,37.0,29.77,WSW,247,0.0,0.0,48,0.00,,SCT180,0.00,VWS V14.01,2013-10-11 01:40:00,
2013-10-10 18:45:00,56.3,37.4,29.77,WSW,246,0.0,0.0,49,0.00,,SCT180,0.00,VWS V14.01,2013-10-11 01:45:00,
2013-10-10 18:50:00,55.2,38.4,29.77,WSW,247,0.0,0.0,53,0.00,,SCT180,0.00,VWS V14.01,2013-10-11 01:50:00,
2013-10-10 18:55:00,55.0,38.7,29.77,WSW,247,0.0,0.0,54,0.00,,SCT180,0.00,VWS V14.01,2013-10-11 01:55:00,
2013-10-10 19:00:00,54.5,40.9,29.80,WSW,247,0.0,0.0,60,0.00,,SCT180,0.00,VWS V14.01,2013-10-11 02:00:00,
2013-10-10 19:05:00,54.1,41.0,29.80,WSW,245,0.0,0.0,61,0.00,,SCT180,0.00,VWS V14.01,2013-10-11 02:05:00,
2013-10-10 19:10:00,54.0,41.2,29.80,WSW,244,0.0,0.0,62,0.00,,SCT180,0.00,VWS V14.01,2013-10-11 02:10:00,
2013-10-10 19:15:00,53.8,41.5,29.80,WSW,244,0.0,0.0,63,0.00,,SCT180,0.00,VWS V14.01,2013-10-11 02:15:00,
2013-10-10 19:20:00,53.6,41.7,29.80,WSW,243,0.0,0.0,64,0.00,,SCT180,0.00,VWS V14.01,2013-10-11 02:20:00,
2013-10-10 19:25:00,53.4,42.4,29.80,WSW,243,0.0,0.0,66,0.00,,SCT180,0.00,VWS V14.01,2013-10-11 02:25:00,
2013-10-10 19:30:00,53.2,42.2,29.80,WSW,242,0.0,0.0,66,0.00,,SCT180,0.00,VWS V14.01,2013-10-11 02:30:00,
2013-10-10 19:35:00,53.1,42.4,29.80,SSW,192,0.0,0.0,67,0.00,,SCT180,0.00,VWS V14.01,2013-10-11 02:35:00,
2013-10-10 19:40:00,53.1,42.4,29.80,SSW,212,0.0,0.0,67,0.00,,SCT180,0.00,VWS V14.01,2013-10-11 02:40:00,
2013-10-10 19:45:00,52.9,42.6,29.80,SW,214,0.0,0.0,68,0.00,,SCT180,0.00,VWS V14.01,2013-10-11 02:45:00,
2013-10-10 19:50:00,52.9,42.6,29.80,SW,229,0.0,0.0,68,0.00,,SCT180,0.00,VWS V14.01,2013-10-11 02:50:00,
2013-10-10 19:55:00,52.9,43.0,29.80,WSW,239,0.0,0.0,69,0.00,,SCT180,0.00,VWS V14.01,2013-10-11 02:55:00,
2013-10-10 20:00:00,52.7,43.2,29.80,WSW,242,0.0,0.0,70,0.00,,FEW010,0.00,VWS V14.01,2013-10-11 03:00:00,
2013-10-10 20:05:00,52.7,43.2,29.80,WSW,241,0.0,0.0,70,0.00,,FEW010,0.00,VWS V14.01,2013-10-11 03:05:00,
2013-10-10 20:10:00,52.5,43.0,29.83,WSW,242,0.0,0.0,70,0.00,,FEW010,0.00,VWS V14.01,2013-10-11 03:10:00,
2013-10-10 20:15:00,52.5,43.0,29.83,WSW,240,0.0,0.0,70,0.00,,FEW010,0.00,VWS V14.01,2013-10-11 03:15:00,
2013-10-10 20:20:00,52.5,43.4,29.83,SW,236,0.0,0.0,71,0.00,,FEW010,0.00,VWS V14.01,2013-10-11 03:20:00,
2013-10-10 20:25:00,52.3,43.2,29.83,SW,236,0.0,0.0,71,0.00,,FEW010,0.00,VWS V14.01,2013-10-11 03:25:00,
2013-10-10 20:30:00,52.3,43.2,29.83,SW,236,0.0,0.0,71,0.00,,FEW010,0.00,VWS V14.01,2013-10-11 03:30:00,
2013-10-10 20:35:00,52.2,43.1,29.83,SW,236,0.0,0.0,71,0.00,,FEW010,0.00,VWS V14.01,2013-10-11 03:35:00,
2013-10-10 20:40:00,52.2,43.1,29.83,SW,236,0.0,0.0,71,0.00,,FEW010,0.00,VWS V14.01,2013-10-11 03:40:00,
2013-10-10 20:45:00,52.2,43.1,29.83,SW,236,0.0,0.0,71,0.00,,FEW010,0.00,VWS V14.01,2013-10-11 03:45:00,
2013-10-10 20:50:00,52.2,43.1,29.83,WSW,237,0.0,0.0,71,0.00,,FEW010,0.00,VWS V14.01,2013-10-11 03:50:00,
2013-10-10 20:55:00,52.0,43.2,29.83,WSW,237,0.0,0.0,72,0.00,,FEW010,0.00,VWS V14.01,2013-10-11 03:55:00,
2013-10-10 21:00:00,52.0,43.2,29.83,WSW,238,0.0,0.0,72,0.00,,CLR,0.00,VWS V14.01,2013-10-11 04:00:00,
2013-10-10 21:01:00,52.0,43.2,29.83,WSW,238,0.0,0.0,72,0.00,,CLR,0.00,VWS V14.01,2013-10-11 04:01:00,
2013-10-10 21:06:00,52.0,43.2,29.83,WSW,238,0.0,0.0,72,0.00,,CLR,0.00,VWS V14.01,2013-10-11 04:06:00,
2013-10-10 21:11:00,52.0,43.2,29.83,WSW,238,0.0,0.0,72,0.00,,CLR,0.00,VWS V14.01,2013-10-11 04:11:00,
2013-10-10 21:16:00,51.8,43.1,29.83,WSW,238,0.0,0.0,72,0.00,,CLR,0.00,VWS V14.01,2013-10-11 04:16:00,
2013-10-10 21:21:00,51.6,42.9,29.83,WSW,238,0.0,0.0,72,0.00,,CLR,0.00,VWS V14.01,2013-10-11 04:21:00,
2013-10-10 21:26:00,51.6,42.9,29.83,WSW,238,0.0,0.0,72,0.00,,CLR,0.00,VWS V14.01,2013-10-11 04:26:00,
2013-10-10 21:31:00,51.6,42.9,29.83,WSW,238,0.0,0.0,72,0.00,,CLR,0.00,VWS V14.01,2013-10-11 04:31:00,
2013-10-10 21:36:00,51.6,42.9,29.83,WSW,238,0.0,0.0,72,0.00,,CLR,0.00,VWS V14.01,2013-10-11 04:36:00,
2013-10-10 21:41:00,51.6,43.3,29.83,WSW,237,0.0,0.0,73,0.00,,CLR,0.00,VWS V14.01,2013-10-11 04:41:00,
2013-10-10 21:46:00,51.6,43.3,29.83,WSW,237,0.0,0.0,73,0.00,,CLR,0.00,VWS V14.01,2013-10-11 04:46:00,
2013-10-10 21:51:00,51.4,43.1,29.83,WSW,237,0.0,0.0,73,0.00,,CLR,0.00,VWS V14.01,2013-10-11 04:51:00,
2013-10-10 21:56:00,51.4,43.1,29.83,WSW,238,0.0,0.0,73,0.00,,CLR,0.00,VWS V14.01,2013-10-11 04:56:00,
2013-10-10 22:01:00,51.4,43.1,29.83,WSW,237,0.0,0.0,73,0.00,,CLR,0.00,VWS V14.01,2013-10-11 05:01:00,
2013-10-10 22:06:00,51.1,42.7,29.83,WSW,237,0.0,0.0,73,0.00,,CLR,0.00,VWS V14.01,2013-10-11 05:06:00,
2013-10-10 22:11:00,51.1,42.7,29.83,WSW,237,0.0,0.0,73,0.00,,CLR,0.00,VWS V14.01,2013-10-11 05:11:00,
2013-10-10 22:16:00,51.1,42.7,29.83,WSW,237,0.0,0.0,73,0.00,,CLR,0.00,VWS V14.01,2013-10-11 05:16:00,
2013-10-10 22:21:00,50.9,42.6,29.83,WSW,238,0.0,0.0,73,0.00,,CLR,0.00,VWS V14.01,2013-10-11 05:21:00,
2013-10-10 22:26:00,50.9,42.6,29.83,WSW,237,0.0,0.0,73,0.00,,CLR,0.00,VWS V14.01,2013-10-11 05:26:00,
2013-10-10 22:31:00,50.9,42.6,29.83,WSW,237,0.0,0.0,73,0.00,,CLR,0.00,VWS V14.01,2013-10-11 05:31:00,
2013-10-10 22:36:00,50.9,42.6,29.83,WSW,237,0.0,0.0,73,0.00,,CLR,0.00,VWS V14.01,2013-10-11 05:36:00,
2013-10-10 22:41:00,50.9,42.6,29.83,WSW,237,0.0,0.0,73,0.00,,CLR,0.00,VWS V14.01,2013-10-11 05:41:00,
2013-10-10 22:46:00,50.9,42.9,29.83,WSW,237,0.0,0.0,74,0.00,,CLR,0.00,VWS V14.01,2013-10-11 05:46:00,
2013-10-10 22:51:00,50.9,42.9,29.83,WSW,238,0.0,0.0,74,0.00,,CLR,0.00,VWS V14.01,2013-10-11 05:51:00,
2013-10-10 22:56:00,50.9,42.9,29.83,WSW,237,0.0,0.0,74,0.00,,CLR,0.00,VWS V14.01,2013-10-11 05:56:00,
2013-10-10 23:01:00,50.9,42.9,29.83,WSW,237,0.0,0.0,74,0.00,,CLR,0.00,VWS V14.01,2013-10-11 06:01:00,
2013-10-10 23:06:00,50.9,42.9,29.83,WSW,237,0.0,0.0,74,0.00,,CLR,0.00,VWS V14.01,2013-10-11 06:06:00,
2013-10-10 23:11:00,50.9,43.3,29.85,WSW,239,0.0,0.0,75,0.00,,CLR,0.00,VWS V14.01,2013-10-11 06:11:00,
2013-10-10 23:16:00,50.9,43.6,29.85,WSW,239,0.0,0.0,76,0.00,,CLR,0.00,VWS V14.01,2013-10-11 06:16:00,
2013-10-10 23:21:00,50.9,43.6,29.85,WSW,239,0.0,0.0,76,0.00,,CLR,0.00,VWS V14.01,2013-10-11 06:21:00,
2013-10-10 23:26:00,51.1,44.1,29.85,WSW,239,0.0,0.0,77,0.00,,CLR,0.00,VWS V14.01,2013-10-11 06:26:00,
2013-10-10 23:31:00,51.1,44.1,29.85,WSW,239,0.0,0.0,77,0.00,,CLR,0.00,VWS V14.01,2013-10-11 06:31:00,
2013-10-10 23:36:00,51.1,44.1,29.85,WSW,239,0.0,0.0,77,0.00,,CLR,0.00,VWS V14.01,2013-10-11 06:36:00,
2013-10-10 23:41:00,51.1,44.1,29.85,WSW,239,0.0,0.0,77,0.00,,CLR,0.00,VWS V14.01,2013-10-11 06:41:00,
2013-10-10 23:46:00,51.1,44.1,29.85,WSW,239,0.0,0.0,77,0.00,,CLR,0.00,VWS V14.01,2013-10-11 06:46:00,
2013-10-10 23:51:00,51.1,44.1,29.85,WSW,239,0.0,0.0,77,0.00,,CLR,0.00,VWS V14.01,2013-10-11 06:51:00,
2013-10-10 23:56:00,51.1,44.1,29.85,WSW,239,0.0,0.0,77,0.00,,CLR,0.00,VWS V14.01,2013-10-11 06:56:00,